GW5848 Weather Reports


time (UTC)temp
C
wind
direction
speed
KPH
gust
KPH
rain 1hr
cm
rain 24hr
cm
rain mn
cm
humidity
%
barometer
mb
20260507220504 16 180 8.0 16.1 0.00 0.46 0.03 73 1008.1
20260507220014 16 214 8.0 16.1 0.00 0.46 0.03 73 1008.1
20260507215504 16 168 8.0 20.9 0.00 0.46 0.03 72 1008.1
20260507215005 16 174 12.9 20.9 0.00 0.46 0.03 70 1008.2
20260507214520 16 211 9.7 17.7 0.00 0.46 0.03 69 1008.2
20260507214004 16 180 6.4 17.7 0.00 0.46 0.03 68 1008.2
20260507213504 16 217 9.7 16.1 0.00 0.46 0.03 69 1008.2
20260507213016 16 153 8.0 17.7 0.00 0.46 0.03 67 1008.1
20260507212508 16 195 9.7 17.7 0.00 0.46 0.03 68 1008.0
20260507212006 16 155 11.3 19.3 0.00 0.46 0.03 67 1008.1
20260507211516 16 151 12.9 19.3 0.00 0.46 0.03 67 1008.0
20260507210514 16 153 6.4 19.3 0.00 0.46 0.03 66 1008.0
20260507205505 17 233 11.3 19.3 0.00 0.46 0.03 66 1007.9
20260507205002 17 222 6.4 19.3 0.00 0.46 0.03 66 1007.9
20260507204510 17 214 12.9 19.3 0.00 0.46 0.03 65 1007.9
20260507204006 17 165 8.0 14.5 0.00 0.46 0.03 66 1007.9
20260507203507 17 141 9.7 14.5 0.00 0.46 0.03 64 1008.0
20260507203015 17 148 11.3 14.5 0.00 0.46 0.03 62 1008.0
20260507202504 18 194 6.4 14.5 0.00 0.46 0.03 60 1008.0
20260507202006 18 287 1.6 14.5 0.00 0.46 0.03 57 1007.9
20260507201513 18 221 0.0 17.7 0.00 0.46 0.03 59 1007.9
20260507201005 18 120 6.4 17.7 0.00 0.46 0.03 59 1008.1
20260507195506 18 248 8.0 14.5 0.00 0.46 0.03 55 1008.3
20260507194003 17 139 1.6 9.7 0.00 0.46 0.03 57 1008.5
20260507193506 17 158 0.0 9.7 0.00 0.46 0.03 56 1008.7
20260507193010 17 273 6.4 8.0 0.00 0.46 0.03 58 1008.9
20260507192506 17 281 0.0 8.0 0.00 0.46 0.03 58 1008.9
20260507192004 17 272 3.2 8.0 0.00 0.46 0.03 59 1009.0
20260507191514 17 304 0.0 8.0 0.00 0.46 0.03 60 1009.1
20260507191007 17 148 1.6 11.3 0.00 0.46 0.03 57 1009.3
20260507190508 17 254 3.2 12.9 0.00 0.46 0.03 61 1009.3
20260507190018 17 231 8.0 12.9 0.00 0.46 0.03 61 1009.3
20260507184007 17 214 9.7 14.5 0.00 0.46 0.03 54 1009.3
20260507183506 18 210 3.2 11.3 0.00 0.46 0.03 61 1009.2
20260507183018 17 247 0.0 6.4 0.00 0.46 0.03 60 1009.3
20260507182503 17 319 0.0 9.7 0.00 0.46 0.03 60 1009.5
20260507182011 16 254 0.0 11.3 0.00 0.46 0.03 61 1009.5
20260507181508 16 277 4.8 11.3 0.00 0.46 0.03 61 1009.5
20260507181006 16 304 1.6 8.0 0.00 0.46 0.03 60 1009.6
20260507180504 16 283 4.8 8.0 0.00 0.46 0.03 64 1009.7
20260507180016 16 228 1.6 6.4 0.00 0.46 0.03 62 1009.7
20260507175508 16 226 3.2 6.4 0.00 0.46 0.03 61 1009.9
20260507175009 15 217 0.0 8.0 0.00 0.46 0.03 61 1009.9
20260507174519 15 265 1.6 8.0 0.00 0.46 0.03 62 1009.9
20260507173031 15 204 11.3 14.5 0.00 0.46 0.03 66 1010.1
20260507172507 15 214 1.6 8.0 0.00 0.46 0.03 65 1010.2
20260507172007 15 300 1.6 4.8 0.00 0.46 0.03 63 1010.4
20260507171522 14 293 0.0 4.8 0.00 0.46 0.03 66 1010.6
20260507171003 13 352 0.0 8.0 0.00 0.46 0.03 65 1010.6
20260507170507 13 69 3.2 9.7 0.00 0.46 0.03 64 1010.7
20260507170013 13 188 4.8 11.3 0.00 0.46 0.03 68 1010.9
20260507165506 13 226 4.8 11.3 0.00 0.46 0.03 67 1010.9
20260507164519 13 210 8.0 14.5 0.00 0.46 0.03 70 1010.9
20260507163022 13 114 3.2 8.0 0.00 0.46 0.03 67 1011.3
20260507162507 13 122 4.8 6.4 0.00 0.46 0.03 67 1011.4
20260507161006 13 300 0.0 3.2 0.00 0.46 0.03 68 1011.7
20260507160508 12 309 0.0 3.2 0.00 0.46 0.03 67 1012.2
20260507160025 12 321 0.0 6.4 0.00 0.46 0.03 72 1012.1
20260507155508 12 329 1.6 6.4 0.00 0.46 0.03 69 1012.0
20260507154515 12 321 1.6 8.0 0.00 0.46 0.03 70 1011.9
20260507153017 12 227 0.0 4.8 0.00 0.46 0.03 72 1012.1
20260507150514 12 18 0.0 6.4 0.00 0.46 0.03 76 1012.1
20260507145513 11 322 0.0 6.4 0.00 0.46 0.03 77 1012.3
20260507145007 11 219 1.6 6.4 0.00 0.46 0.03 76 1012.3
20260507144524 11 82 0.0 1.6 0.00 0.46 0.03 78 1012.4
20260507144010 11 285 0.0 6.4 0.00 0.46 0.03 79 1012.3
20260507142014 11 97 1.6 6.4 0.00 0.46 0.03 78 1012.8
20260507141521 11 46 0.0 1.6 0.00 0.46 0.03 81 1012.7
20260507141008 11 16 0.0 1.6 0.00 0.46 0.03 81 1012.8
20260507140508 11 120 0.0 6.4 0.00 0.46 0.03 81 1012.8
20260507140024 11 20 0.0 6.4 0.00 0.46 0.03 80 1012.8
20260507135508 11 45 0.0 6.4 0.00 0.46 0.03 81 1012.8
20260507135009 11 68 0.0 11.3 0.00 0.46 0.03 82 1012.8
20260507134522 11 89 0.0 11.3 0.00 0.46 0.03 81 1012.8
20260507134010 11 85 0.0 8.0 0.00 0.46 0.03 82 1012.8
20260507133507 11 70 1.6 8.0 0.00 0.46 0.03 80 1012.8
20260507133022 11 257 0.0 1.6 0.00 0.46 0.03 82 1012.8
20260507132510 11 64 0.0 6.4 0.00 0.46 0.03 84 1012.8
20260507132005 11 64 1.6 6.4 0.00 0.48 0.03 83 1012.8
20260507131517 11 60 0.0 3.2 0.00 0.48 0.03 84 1012.9
20260507131009 11 328 0.0 6.4 0.00 0.48 0.03 87 1013.0
20260507130508 11 337 0.0 8.0 0.00 0.48 0.03 86 1012.9
20260507130021 11 308 3.2 8.0 0.00 0.51 0.03 86 1012.9
20260507123503 11 284 0.0 3.2 0.00 0.56 0.03 88 1012.9
20260507123009 11 235 0.0 3.2 0.00 0.56 0.03 89 1013.0
20260507122504 11 287 0.0 3.2 0.00 0.56 0.03 89 1012.9
20260507122006 11 261 0.0 3.2 0.00 0.56 0.03 89 1012.7
20260507121515 11 289 0.0 3.2 0.00 0.56 0.03 90 1012.5
20260507121007 11 276 0.0 0.0 0.00 0.58 0.03 90 1012.3
20260507120505 11 294 0.0 0.0 0.00 0.58 0.03 90 1012.3
20260507120019 11 290 0.0 0.0 0.00 0.58 0.03 90 1012.2
20260507115506 11 298 0.0 0.0 0.00 0.58 0.03 91 1012.3
20260507115010 11 300 0.0 0.0 0.00 0.61 0.03 91 1012.2
20260507114003 11 259 0.0 0.0 0.00 0.61 0.03 91 1012.4
20260507113012 11 323 0.0 3.2 0.00 0.61 0.03 91 1012.3
20260507112506 11 327 0.0 1.6 0.00 0.61 0.03 91 1012.2
20260507112004 11 266 0.0 1.6 0.00 0.61 0.03 92 1012.4
20260507111513 11 259 0.0 3.2 0.00 0.61 0.03 91 1012.4
20260507111004 11 314 0.0 4.8 0.00 0.61 0.03 92 1012.2
20260507110503 11 314 1.6 4.8 0.00 0.61 0.03 91 1012.2
20260507110018 11 250 0.0 1.6 0.00 0.61 0.03 91 1012.0
20260507105505 11 265 0.0 0.0 0.00 0.64 0.03 91 1011.8
20260507105006 11 248 0.0 0.0 0.00 0.64 0.03 91 1011.8
20260507104523 11 248 0.0 0.0 0.00 0.64 0.03 91 1011.8
20260507104009 11 248 0.0 1.6 0.00 0.64 0.03 91 1011.7
20260507103508 11 248 0.0 1.6 0.00 0.64 0.03 91 1011.7
20260507103005 11 248 0.0 1.6 0.00 0.64 0.03 91 1011.8
20260507102503 11 248 0.0 1.6 0.00 0.64 0.03 91 1012.0
20260507102006 11 248 0.0 3.2 0.00 0.64 0.03 90 1011.9
20260507101510 11 248 0.0 4.8 0.00 0.64 0.03 90 1011.9
20260507101004 11 248 1.6 4.8 0.00 0.64 0.03 90 1012.0
20260507100504 11 249 0.0 1.6 0.00 0.64 0.03 91 1011.8
20260507100019 11 278 0.0 3.2 0.00 0.64 0.03 90 1011.8
20260507095505 11 301 1.6 4.8 0.00 0.64 0.03 90 1011.6
20260507095008 11 266 1.6 4.8 0.00 0.64 0.03 90 1011.8
20260507094524 11 261 0.0 1.6 0.00 0.64 0.03 90 1011.8
20260507094007 11 159 0.0 0.0 0.00 0.64 0.03 89 1011.4
20260507093507 11 159 0.0 3.2 0.00 0.64 0.03 89 1011.5
20260507093024 11 159 0.0 6.4 0.00 0.64 0.03 89 1011.2
20260507092508 11 116 1.6 8.0 0.00 0.64 0.03 89 1011.4
20260507092010 11 148 3.2 8.0 0.00 0.64 0.03 89 1011.6
20260507091530 11 138 0.0 3.2 0.00 0.64 0.03 87 1011.4
20260507091003 11 84 0.0 6.4 0.00 0.64 0.03 89 1011.4
20260507090504 11 143 1.6 6.4 0.00 0.64 0.03 89 1011.6
20260507090016 11 303 0.0 0.0 0.00 0.64 0.03 88 1011.6
20260507085505 11 300 0.0 0.0 0.00 0.64 0.03 86 1011.3
20260507085004 11 300 0.0 4.8 0.00 0.64 0.03 88 1011.3
20260507084522 11 300 0.0 11.3 0.00 0.64 0.03 87 1011.3
20260507084007 11 124 0.0 11.3 0.00 0.64 0.03 88 1011.1
20260507083507 11 262 1.6 11.3 0.00 0.64 0.03 88 1011.1
20260507083020 11 335 0.0 0.0 0.00 0.64 0.03 89 1011.1
20260507082508 11 335 0.0 1.6 0.00 0.64 0.03 90 1011.3
20260507082010 11 10 0.0 6.4 0.00 0.64 0.03 90 1011.2
20260507081525 11 311 1.6 6.4 0.00 0.64 0.03 90 1011.4
20260507081006 11 305 1.6 4.8 0.00 0.64 0.03 90 1011.5
20260507080511 11 302 0.0 0.0 0.00 0.64 0.03 90 1011.6
20260507080023 11 94 0.0 0.0 0.00 0.64 0.03 91 1011.5
20260507075504 11 94 0.0 0.0 0.00 0.64 0.03 91 1011.3
20260507075004 12 320 0.0 1.6 0.00 0.64 0.03 91 1011.4
20260507074511 12 326 0.0 8.0 0.00 0.64 0.03 91 1011.3
20260507074007 12 323 1.6 8.0 0.00 0.64 0.03 91 1011.4
20260507073507 12 312 3.2 6.4 0.00 0.64 0.03 91 1011.2
20260507073015 12 320 3.2 4.8 0.00 0.64 0.03 91 1011.2
20260507072506 12 311 3.2 4.8 0.00 0.64 0.03 91 1010.9
20260507072008 12 279 0.0 4.8 0.00 0.64 0.03 90 1010.7
20260507071519 12 323 3.2 6.4 0.00 0.64 0.03 90 1010.6
20260507071010 12 325 0.0 6.4 0.00 0.64 0.03 91 1010.8
20260507070507 12 42 0.0 1.6 0.00 0.64 0.03 92 1010.9
20260507070022 12 283 0.0 1.6 0.00 0.64 0.03 93 1010.8
20260507065507 12 316 0.0 0.0 0.00 0.64 0.03 93 1010.6
20260507065010 12 316 0.0 6.4 0.00 0.64 0.03 92 1010.6
20260507064525 12 316 1.6 6.4 0.00 0.64 0.03 91 1010.7
20260507064005 12 295 3.2 6.4 0.00 0.64 0.03 91 1010.8
20260507063505 12 309 4.8 6.4 0.00 0.64 0.03 91 1010.8
20260507063015 12 307 3.2 8.0 0.00 0.64 0.03 91 1010.7
20260507062506 12 300 4.8 9.7 0.00 0.64 0.03 91 1010.8
20260507062007 12 293 1.6 9.7 0.00 0.64 0.03 91 1010.5
20260507061518 12 309 3.2 9.7 0.00 0.64 0.03 91 1010.5
20260507061009 13 273 3.2 6.4 0.00 0.64 0.03 91 1010.6
20260507060507 13 285 3.2 6.4 0.00 0.64 0.03 92 1010.7
20260507060026 13 272 1.6 8.0 0.00 0.64 0.03 91 1010.8
20260507055510 13 288 3.2 8.0 0.00 0.64 0.03 91 1011.0
20260507055007 13 306 0.0 6.4 0.00 0.64 0.03 92 1010.9
20260507054524 13 307 3.2 6.4 0.00 0.64 0.03 92 1011.0
20260507054010 13 314 1.6 11.3 0.00 0.64 0.03 93 1011.1
20260507053513 13 326 3.2 16.1 0.00 0.64 0.03 93 1010.9
20260507053026 13 319 6.4 16.1 0.00 0.64 0.03 93 1010.5
20260507052510 13 321 6.4 14.5 0.00 0.64 0.03 94 1010.3
20260507052010 13 308 8.0 14.5 0.00 0.64 0.03 94 1010.5
20260507051515 13 282 0.0 11.3 0.00 0.64 0.03 95 1010.4
20260507051008 13 312 4.8 11.3 0.00 0.64 0.03 94 1010.6
20260507050505 13 306 3.2 9.7 0.00 0.64 0.03 94 1010.4
20260507050020 13 319 6.4 11.3 0.03 0.64 0.03 94 1010.1
20260507045506 13 317 4.8 17.7 0.05 0.64 0.03 94 1010.1
20260507045006 13 307 9.7 17.7 0.30 0.64 0.03 93 1010.0
20260507044543 14 319 8.0 17.7 0.33 0.64 0.03 94 1009.8
20260507044007 15 308 9.7 14.5 0.33 0.64 0.03 94 1009.9
20260507043506 15 133 8.0 11.3 0.33 0.64 0.03 96 1009.5
20260507043025 15 168 6.4 11.3 0.33 0.64 0.03 96 1009.7
20260507042511 14 221 4.8 6.4 0.33 0.64 0.03 96 1009.8
20260507042010 14 165 4.8 6.4 0.33 0.64 0.03 95 1009.8
20260507041528 15 235 3.2 6.4 0.33 0.64 0.03 95 1010.2
20260507041011 15 213 1.6 4.8 0.38 0.64 0.03 95 1010.3
20260507040504 15 311 0.0 8.0 0.41 0.64 0.03 95 1010.4
20260507040019 15 130 0.0 12.9 0.38 0.61 0.00 94 1010.6
20260507035506 15 308 4.8 12.9 0.36 0.58 0.58 94 1011.1
20260507035007 15 302 8.0 12.9 0.10 0.33 0.33 94 1011.1
20260507034520 15 298 8.0 11.3 0.08 0.30 0.30 94 1010.8
20260507034007 16 272 3.2 6.4 0.08 0.30 0.30 94 1010.4
20260507033508 16 283 0.0 4.8 0.08 0.30 0.30 94 1010.5
20260507033024 16 298 0.0 4.8 0.08 0.30 0.30 93 1010.4
20260507032509 16 300 0.0 4.8 0.08 0.30 0.30 93 1010.4
20260507032003 16 299 0.0 1.6 0.08 0.30 0.30 93 1010.4
20260507031508 16 84 0.0 6.4 0.08 0.30 0.30 93 1010.4
20260507031004 16 53 3.2 12.9 0.03 0.25 0.25 93 1010.4
20260507030503 16 317 0.0 12.9 0.00 0.23 0.23 93 1010.3
20260507030016 16 347 6.4 11.3 0.00 0.23 0.23 93 1010.4
20260507025505 16 290 3.2 8.0 0.00 0.23 0.23 93 1010.3
20260507025006 16 285 0.0 4.8 0.00 0.23 0.23 93 1010.3
20260507024519 16 246 0.0 4.8 0.00 0.23 0.23 92 1010.1
20260507024006 16 247 0.0 4.8 0.00 0.23 0.23 93 1010.1
20260507023506 16 262 0.0 9.7 0.00 0.23 0.23 93 1010.1
20260507023021 16 224 4.8 14.5 0.00 0.23 0.23 93 1010.0
20260507022507 16 134 3.2 14.5 0.00 0.23 0.23 93 1009.5
20260507022009 16 307 6.4 9.7 0.00 0.23 0.23 93 1009.8
20260507021528 16 133 0.0 3.2 0.00 0.23 0.23 92 1009.3
20260507021014 16 261 1.6 6.4 0.00 0.23 0.23 92 1009.5
20260507020508 16 304 1.6 6.4 0.00 0.23 0.23 92 1009.5
20260507020010 16 320 3.2 6.4 0.00 0.23 0.23 91 1009.5
20260507015502 16 316 3.2 6.4 0.00 0.23 0.23 90 1009.4
20260507015005 16 317 1.6 8.0 0.00 0.23 0.23 89 1009.4
20260507014515 16 295 4.8 8.0 0.00 0.23 0.23 89 1009.4
20260507014006 17 326 4.8 8.0 0.00 0.23 0.23 89 1009.2
20260507013505 17 286 0.0 6.4 0.00 0.23 0.23 89 1008.9
20260507013019 17 181 3.2 6.4 0.00 0.23 0.23 89 1008.8
20260507012508 17 233 0.0 6.4 0.00 0.23 0.23 88 1008.9
20260507012008 17 223 0.0 9.7 0.00 0.23 0.23 88 1009.0
20260507011520 17 255 6.4 9.7 0.00 0.23 0.23 88 1009.2
20260507011012 17 274 4.8 6.4 0.00 0.23 0.23 89 1009.3
20260507010509 17 240 0.0 0.0 0.00 0.23 0.23 90 1009.3
20260507010029 17 277 0.0 1.6 0.03 0.23 0.23 90 1009.2
20260507005510 17 265 0.0 4.8 0.05 0.23 0.23 91 1009.3
20260507005008 18 293 0.0 4.8 0.05 0.23 0.23 91 1009.4
20260507004511 18 293 1.6 3.2 0.05 0.23 0.23 91 1009.4
20260507004005 18 310 0.0 6.4 0.05 0.23 0.23 91 1009.4
20260507003502 18 302 1.6 6.4 0.05 0.23 0.23 90 1009.3
20260507003025 18 320 1.6 8.0 0.05 0.23 0.23 89 1009.5
20260507002506 18 44 0.0 11.3 0.05 0.23 0.23 88 1009.3
20260507002007 18 322 6.4 11.3 0.05 0.23 0.23 87 1009.4
20260507001534 18 356 1.6 11.3 0.05 0.23 0.23 87 1009.2
20260507001007 19 310 6.4 11.3 0.05 0.23 0.23 87 1009.3
20260507000508 20 338 0.0 3.2 0.05 0.23 0.23 86 1008.7
20260507000022 20 334 1.6 4.8 0.03 0.20 0.20 82 1008.6
20260506235507 20 326 0.0 6.4 0.00 0.18 0.18 78 1008.5
20260506235009 20 66 1.6 6.4 0.00 0.18 0.18 77 1008.3
20260506234523 21 64 0.0 4.8 0.00 0.18 0.18 76 1008.5
20260506234008 21 84 1.6 4.8 0.00 0.18 0.18 76 1008.3
20260506233510 21 125 0.0 8.0 0.00 0.18 0.18 75 1008.5
20260506233014 21 143 3.2 8.0 0.00 0.18 0.18 75 1008.5
20260506232503 21 145 4.8 8.0 0.00 0.18 0.18 75 1008.5
20260506232008 21 161 4.8 8.0 0.00 0.18 0.18 74 1008.6
20260506231514 21 198 4.8 8.0 0.00 0.18 0.18 74 1008.4
20260506231007 21 160 3.2 8.0 0.00 0.18 0.18 73 1008.3
20260506230505 21 172 6.4 8.0 0.00 0.18 0.18 73 1008.3
20260506230019 22 135 3.2 9.7 0.00 0.18 0.18 73 1008.2
20260506225507 22 165 3.2 9.7 0.00 0.18 0.18 72 1008.2
20260506225007 22 138 1.6 16.1 0.00 0.18 0.18 72 1008.1
20260506224524 22 167 3.2 16.1 0.00 0.18 0.18 70 1008.2
20260506223511 22 149 4.8 22.5 0.00 0.18 0.18 70 1008.2
20260506223024 22 222 6.4 22.5 0.00 0.18 0.18 69 1008.2
20260506222509 22 217 9.7 22.5 0.00 0.18 0.18 68 1008.1
20260506222009 22 245 8.0 22.5 0.00 0.18 0.18 68 1008.1
20260506221509 23 254 3.2 16.1 0.00 0.18 0.18 68 1008.2